This demonstration page uses our WeatherBlox Daily Observations layout. Learn more.

Left ArrowRight Arrow

39.01783, -85.05884

Hourly Observations for July 7, 2018

Temp ( °F °C ) Dew Point ( °F °C ) Humidity (%) Winds ( mph kmh ) Pressure ( in mb ) Visibility ( mi km ) Precip ( " mm )
12:52 am 00:52 Clear 69 20.6 49 9.4 49 49 NE 13 20 30.25 1025 10 16 0.00 0.00
1:52 am 01:52 Clear 68 20 48 8.9 49 49 NE 14 22 30.25 1024 10 16 0.00 0.00
2:52 am 02:52 Clear 66 18.9 48 8.9 52 52 NE 13 20 30.25 1024 10 16 0.00 0.00
3:52 am 03:52 Clear 64 17.8 50 10 60 60 NE 14 22 30.24 1024 10 16 0.00 0.00
4:52 am 04:52 Clear 63 17.2 51 10.6 65 65 ENE 12 19 30.24 1024 10 16 0.00 0.00
5:52 am 05:52 Clear 63 17.2 53 11.7 70 70 ENE 12 19 30.25 1024 10 16 0.00 0.00
6:52 am 06:52 Mostly Sunny 63 17.2 54 12.2 73 73 NE 14 22 30.25 1025 10 16 0.00 0.00
7:52 am 07:52 Mostly Sunny 65 18.3 55 12.8 70 70 NE 14 22 30.27 1025 10 16 0.00 0.00
8:52 am 08:52 Mostly Sunny 68 20 56 13.3 65 65 ENE 13 20 30.28 1025 10 16 0.00 0.00
9:52 am 09:52 Mostly Sunny 70 21.1 55 12.8 59 59 ENE 9 15 30.29 1026 10 16 0.00 0.00
10:52 am 10:52 Mostly Sunny 75 23.9 55 12.8 50 50 NE 12 19 30.29 1026 10 16 0.00 0.00
11:52 am 11:52 Mostly Sunny 77 25 51 10.6 40 40 ENE 12 19 30.28 1025 10 16 0.00 0.00
12:52 pm 12:52 Mostly Sunny 79 26.1 53 11.7 41 41 E 10 17 30.27 1025 10 16 0.00 0.00
1:52 pm 13:52 Mostly Sunny 81 27.2 53 11.7 38 38 ENE 13 20 30.26 1025 10 16 0.00 0.00
2:52 pm 14:52 Mostly Sunny 82 27.8 53 11.7 37 37 VRB 7 11 30.24 1024 10 16 0.00 0.00
3:52 pm 15:52 Mostly Sunny 83 28.3 53 11.7 36 36 ENE 9 15 30.23 1024 10 16 0.00 0.00
4:52 pm 16:52 Mostly Sunny 83 28.3 54 12.2 37 37 E 12 19 30.22 1023 10 16 0.00 0.00
5:52 pm 17:52 Mostly Sunny 83 28.3 53 11.7 36 36 E 10 17 30.20 1023 10 16 0.00 0.00
6:52 pm 18:52 Mostly Sunny 81 27.2 50 10 34 34 ENE 10 17 30.20 1023 10 16 0.00 0.00
7:52 pm 19:52 Sunny 79 26.1 49 9.4 35 35 E 13 20 30.19 1023 10 16 0.00 0.00
8:52 pm 20:52 Sunny 76 24.4 49 9.4 39 39 ENE 12 19 30.21 1023 10 16 0.00 0.00
9:52 pm 21:52 Mostly Clear 75 23.9 49 9.4 40 40 ENE 9 15 30.21 1023 10 16 0.00 0.00
10:52 pm 22:52 Clear 74 23.3 50 10 43 43 ENE 10 17 30.22 1023 10 16 0.00 0.00
11:52 pm 23:52 Clear 72 22.2 50 10 46 46 ENE 12 19 30.22 1023 10 16 0.00 0.00

Powered by AerisWeather